Showing default

COSMOS 1909, 18788

Orbit data source: Space-Track

COSMOS 1909, 18788 is a payload satellite owned by UNKS (CIS) in LEO that was launched on Fri, 15 Jan 1988 UTC via a TSIKLON-3 launch vehicle from the Plesetsk Missile And Space Complex (PKMTR). Payload-class satellites include a variety of spacecraft equipped with specific instruments for various scientific and technological missions. These include communications satellites like Starlink; space stations such as the ISS; scientific satellites like the Hubble; Earth observation satellites from companies like Planet Labs, Umbra, and HawkEye 360; GPS; miniature CubeSats for education and research; and military/defense satellites.

Loading next visibility...
Identifier
18788, 1988-002A
Orbit
LEO
Country
Flag of CISCIS
Related business
Manufacturer
NPO PM
Mission
Defense Communications
Bus & Motor
STRELA-3, Unknown motor
Mass
225 kg wet, 225 kg dry
Launch date (UTC)
1988-01-15 (38 years ago)
Launch vehicle
TSIKLON-3
Launch site
Plesetsk Missile And Space Complex (PKMTR)
Object type
Payload
Rocket body
Debris
Shape & HBR
Cyl, 0.8 m
Radar Cross Section
1.257 m², Large (>1 m²)

Expand to show TLE details & history
Last TLE update: 1 day ago

TLE from 1 day ago
0 COSMOS 1909
1 18788U 88002A   25310.78910041  .00000034  00000-0  13120-3 0  9998
2 18788  82.6127  58.8770 0002649 108.5839  46.3366 12.62863161742737
Epoch: 2025-11-06T18:56Z
TLE epoch observation values (Epoch: 2025-11-06T18:56:18.275Z)
Latitude
24.86103°
Longitude
-94.86863°
Altitude
1,412.588 km
Speed
7.157 km/s
True Right ascension
15h 41m 47s
True Declination
24° 44' 28"
Sunlit
Object was in daylight at epoch
Visualization orbit readout
Latitude
Unknown
Longitude
Unknown
Altitude
Unknown
Speed
Unknown
Apparent Right ascension
Unknown
Apparent Declination
Unknown
Sunlit
N/A
Visualization observer readout
Local Sidereal Time
18:01:30
Azimuth
Unknown
Elevation
Unknown
Doppler factor
Unknown
Orbital elements
Apogee altitude
1,410.53 km
Perigee altitude
1,406.405 km
Semi-major axis
7,786.605 km
Eccentricity
0.00026
Inclination
82.6127°
RAAN
58.877°
Arg. of periapsis
108.5839°
True anomaly
46.35856°
Mean anomaly
46.3366°
Eccentric anomaly
46.34758°
Mean motion
3.15879 °/min
Orbital period
113.97 mins
BSTAR
0.0001312
Loading maneuver chart data...
Computing Atmospheric mass density...
Loading historical data...
Loading historical data...
Loading historical data...
Loading historical data...
Loading historical data...
Loading historical data...
Loading historical data...

Documentation

Showing up to 5 results
|